Location: Sternwarte_Laufen
(47.9344°N, 12.9346°E)
Time: 02:04:00
(UTC+02:00)

ISS - Pass Details

Date: 21 May 2018
Orbit: 402 x 407 km, 51.6° (Epoch: 26 May)

Event Time Altitude Azimuth Distance (km) Brightness Sun altitude
Rises 22:14:56 0° 224° (SW) 2,309 0.0 -11.9°
Reaches altitude 10° 22:17:05 10° 216° (SW) 1,453 -1.2 -12.1°
Maximum altitude 22:20:08 39° 146° (SSE) 624 -3.4 -12.4°
Drops below altitude 10° 22:23:13 10° 76° (ENE) 1,459 -1.3 -12.8°
Sets 22:25:22 0° 69° (ENE) 2,320 -0.2 -13.0°
